When you browse on this site, cookies collect data to enhance your experience and personalize the content and advertising you see.
Visit our Privacy Policy to learn more. By continuing to use the site, you agree to this use of cookies and data.
  • In Austria
  • List of Countries
  • For 7 days
  • Water Temperature
  • Weather Map
  • News
  • Weather Widgets
  • user-avatar
    Login

    Hourly Weather Pachuca de Soto

    Today, 14 December, Saturday

    Time Temperature Precipitation Wind Pressure Humidity
    00:00 +10°C° 0 mm 1 mps 571 mmHg 70%
    01:00 +10°C° 0 mm 1 mps 570 mmHg 69%
    02:00 +9°C° 0 mm 1 mps 570 mmHg 68%
    03:00 +9°C° 0 mm 1 mps 570 mmHg 67%
    04:00 +9°C° 0 mm 1 mps 570 mmHg 66%
    05:00 +9°C° 0 mm 1 mps 569 mmHg 66%
    06:00 +10°C° 0 mm 1 mps 571 mmHg 57%
    07:00 +12°C° 0 mm 1 mps 572 mmHg 49%
    08:00 +14°C° 0 mm 1 mps 573 mmHg 41%
    09:00 +16°C° 0 mm 1 mps 574 mmHg 35%
    10:00 +18°C° 0 mm 1 mps 574 mmHg 28%
    11:00 +20°C° 0 mm 1 mps 575 mmHg 21%
    12:00 +21°C° 0 mm 1 mps 574 mmHg 20%
    13:00 +21°C° 0 mm 1 mps 574 mmHg 19%
    14:00 +22°C° 0 mm 1 mps 573 mmHg 18%
    15:00 +20°C° 0 mm 1 mps 572 mmHg 24%
    16:00 +18°C° 0 mm 1 mps 572 mmHg 30%
    17:00 +15°C° 0 mm 1 mps 571 mmHg 36%
    18:00 +14°C° 0 mm 1 mps 571 mmHg 40%
    19:00 +13°C° 0 mm 1 mps 571 mmHg 44%
    20:00 +13°C° 0 mm 1 mps 571 mmHg 49%
    21:00 +12°C° 0 mm 1 mps 571 mmHg 48%
    22:00 +12°C° 0 mm 1 mps 571 mmHg 47%
    23:00 +11°C° 0 mm 1 mps 570 mmHg 47%

    Tomorrow, 15 December, Sunday

    Time Temperature Precipitation Wind Pressure Humidity
    00:00 +11°C° 0 mm 1 mps 570 mmHg 47%
    01:00 +11°C° 0 mm 1 mps 570 mmHg 48%
    02:00 +10°C° 0 mm 1 mps 569 mmHg 48%
    03:00 +10°C° 0 mm 1 mps 569 mmHg 49%
    04:00 +10°C° 0 mm 1 mps 569 mmHg 50%
    05:00 +10°C° 0 mm 1 mps 569 mmHg 51%
    06:00 +11°C° 0 mm 1 mps 570 mmHg 47%
    07:00 +13°C° 0 mm 1 mps 572 mmHg 44%
    08:00 +15°C° 0 mm 1 mps 573 mmHg 41%
    09:00 +18°C° 0 mm 1 mps 574 mmHg 35%
    10:00 +19°C° 0 mm 1 mps 574 mmHg 30%
    11:00 +21°C° 0 mm 1 mps 575 mmHg 24%
    12:00 +21°C° 0 mm 2 mps 574 mmHg 22%
    13:00 +21°C° 0 mm 2 mps 574 mmHg 21%
    14:00 +23°C° 0 mm 2 mps 573 mmHg 19%
    15:00 +21°C° 0 mm 1 mps 573 mmHg 24%
    16:00 +19°C° 0 mm 1 mps 572 mmHg 30%
    17:00 +16°C° 0 mm 1 mps 571 mmHg 35%
    18:00 +15°C° 0 mm 1 mps 571 mmHg 39%
    19:00 +14°C° 0 mm 1 mps 571 mmHg 44%
    20:00 +13°C° 0 mm 1 mps 571 mmHg 48%
    21:00 +13°C° 0 mm 1 mps 571 mmHg 50%
    22:00 +13°C° 0 mm 1 mps 571 mmHg 52%
    23:00 +12°C° 0 mm 2 mps 571 mmHg 54%

    Day after tomorrow, 16 December, Monday

    Time Temperature Precipitation Wind Pressure Humidity
    00:00 +12°C° 0 mm 1 mps 570 mmHg 56%
    01:00 +11°C° 0 mm 1 mps 570 mmHg 59%
    02:00 +11°C° 0 mm 1 mps 569 mmHg 62%
    03:00 +11°C° 0 mm 1 mps 569 mmHg 65%
    04:00 +10°C° 0 mm 1 mps 569 mmHg 67%
    05:00 +10°C° 0 mm 1 mps 569 mmHg 69%
    06:00 +12°C° 0 mm 1 mps 570 mmHg 63%
    07:00 +13°C° 0 mm 1 mps 572 mmHg 58%
    08:00 +15°C° 0 mm 1 mps 573 mmHg 52%
    09:00 +16°C° 0 mm 1 mps 573 mmHg 46%
    10:00 +19°C° 0 mm 1 mps 574 mmHg 39%
    11:00 +21°C° 0 mm 1 mps 574 mmHg 33%
    12:00 +20°C° 0 mm 2 mps 574 mmHg 31%
    13:00 +21°C° 0 mm 2 mps 573 mmHg 29%
    14:00 +21°C° 0 mm 2 mps 573 mmHg 26%
    15:00 +20°C° 0 mm 2 mps 573 mmHg 32%
    16:00 +18°C° 0 mm 2 mps 572 mmHg 38%
    17:00 +16°C° 0 mm 3 mps 571 mmHg 43%
    18:00 +15°C° 0 mm 2 mps 571 mmHg 48%
    19:00 +14°C° 0 mm 2 mps 572 mmHg 53%
    20:00 +13°C° 0 mm 1 mps 572 mmHg 58%
    21:00 +13°C° 0 mm 1 mps 572 mmHg 59%
    22:00 +12°C° 0 mm 1 mps 571 mmHg 60%
    23:00 +12°C° 0 mm 1 mps 571 mmHg 61%

    17 December, Tuesday

    Time Temperature Precipitation Wind Pressure Humidity
    00:00 +11°C° 0 mm 1 mps 571 mmHg 61%
    01:00 +11°C° 0 mm 1 mps 571 mmHg 61%
    02:00 +10°C° 0 mm 1 mps 570 mmHg 61%
    03:00 +10°C° 0 mm 1 mps 570 mmHg 63%
    04:00 +9°C° 0 mm 1 mps 570 mmHg 66%
    05:00 +8°C° 0 mm 2 mps 570 mmHg 68%
    06:00 +9°C° 0 mm 2 mps 571 mmHg 70%
    07:00 +9°C° 0 mm 2 mps 572 mmHg 72%
    08:00 +10°C° 0 mm 2 mps 573 mmHg 74%
    09:00 +13°C° 0 mm 2 mps 573 mmHg 68%
    10:00 +14°C° 0 mm 2 mps 574 mmHg 62%
    11:00 +16°C° 0 mm 3 mps 575 mmHg 56%
    12:00 +16°C° 0 mm 3 mps 574 mmHg 57%
    13:00 +16°C° 0 mm 3 mps 574 mmHg 58%
    14:00 +16°C° 0 mm 3 mps 573 mmHg 59%
    15:00 +13°C° 0 mm 3 mps 573 mmHg 67%
    16:00 +12°C° 0 mm 3 mps 572 mmHg 76%
    17:00 +10°C° 0 mm 4 mps 572 mmHg 84%
    18:00 +10°C° 0 mm 3 mps 572 mmHg 85%
    19:00 +9°C° 0 mm 3 mps 573 mmHg 86%
    20:00 +9°C° 0 mm 3 mps 573 mmHg 87%
    21:00 +8°C° 0 mm 3 mps 573 mmHg 86%
    22:00 +8°C° 0 mm 2 mps 573 mmHg 86%
    23:00 +8°C° 0 mm 2 mps 573 mmHg 85%

    18 December, Wednesday

    Time Temperature Precipitation Wind Pressure Humidity
    00:00 +7°C° 0 mm 2 mps 573 mmHg 85%
    01:00 +7°C° 0 mm 2 mps 573 mmHg 86%
    02:00 +7°C° 0 mm 2 mps 573 mmHg 86%
    03:00 +6°C° 0 mm 2 mps 573 mmHg 86%
    04:00 +6°C° 0 mm 2 mps 573 mmHg 86%
    05:00 +6°C° 0 mm 2 mps 573 mmHg 86%
    06:00 +6°C° 0 mm 2 mps 573 mmHg 84%
    07:00 +6°C° 0 mm 2 mps 574 mmHg 82%
    08:00 +7°C° 0 mm 2 mps 574 mmHg 81%
    09:00 +8°C° 0 mm 2 mps 575 mmHg 75%
    10:00 +9°C° 0 mm 3 mps 575 mmHg 70%
    11:00 +10°C° 0 mm 3 mps 575 mmHg 64%
    12:00 +10°C° 0 mm 3 mps 574 mmHg 64%
    13:00 +10°C° 0 mm 3 mps 574 mmHg 63%
    14:00 +10°C° 0 mm 4 mps 573 mmHg 63%
    15:00 +8°C° 0 mm 4 mps 573 mmHg 67%
    16:00 +8°C° 0 mm 3 mps 572 mmHg 72%
    17:00 +7°C° 0 mm 3 mps 572 mmHg 77%
    18:00 +5°C° 0 mm 3 mps 572 mmHg 79%
    19:00 +5°C° 0 mm 3 mps 572 mmHg 81%
    20:00 +5°C° 0 mm 2 mps 572 mmHg 84%
    21:00 +5°C° 0 mm 2 mps 572 mmHg 84%
    22:00 +5°C° 0 mm 2 mps 572 mmHg 84%
    23:00 +5°C° 0 mm 2 mps 572 mmHg 84%

    19 December, Thursday

    Time Temperature Precipitation Wind Pressure Humidity
    00:00 +5°C° 0 mm 2 mps 572 mmHg 85%
    01:00 +6°C° 0 mm 1 mps 572 mmHg 86%
    02:00 +6°C° 0 mm 1 mps 571 mmHg 87%
    03:00 +6°C° 0 mm 1 mps 571 mmHg 88%
    04:00 +6°C° 0 mm 1 mps 571 mmHg 89%
    05:00 +5°C° 0 mm 1 mps 571 mmHg 90%
    06:00 +6°C° 0 mm 0 mps 572 mmHg 84%
    07:00 +7°C° 0 mm 0 mps 573 mmHg 77%
    08:00 +9°C° 0 mm 0 mps 574 mmHg 70%
    09:00 +12°C° 0 mm 1 mps 574 mmHg 63%
    10:00 +14°C° 0 mm 1 mps 575 mmHg 56%
    11:00 +16°C° 0 mm 1 mps 576 mmHg 49%
    12:00 +17°C° 0 mm 2 mps 575 mmHg 47%
    13:00 +18°C° 0 mm 2 mps 575 mmHg 44%
    14:00 +19°C° 0 mm 2 mps 575 mmHg 42%
    15:00 +17°C° 0 mm 2 mps 574 mmHg 49%
    16:00 +16°C° 0 mm 2 mps 573 mmHg 55%
    17:00 +14°C° 0 mm 2 mps 573 mmHg 62%
    18:00 +13°C° 0 mm 2 mps 573 mmHg 66%
    19:00 +12°C° 0 mm 1 mps 573 mmHg 70%
    20:00 +12°C° 0 mm 1 mps 573 mmHg 74%
    21:00 +10°C° 0 mm 0 mps 573 mmHg 73%
    22:00 +10°C° 0 mm 0 mps 573 mmHg 72%
    23:00 +10°C° 0 mm 0 mps 573 mmHg 72%
    Show more